Date,TemperatureHighF,TemperatureAvgF,TemperatureLowF,DewpointHighF,DewpointAvgF,DewpointLowF,HumidityHigh,HumidityAvg,HumidityLow,PressureMaxIn,PressureMinIn,WindSpeedMaxMPH,WindSpeedAvgMPH,GustSpeedMaxMPH,PrecipitationSumIn
2013-1-2,72,66,63,68,64,61,95,92,87,30.03,29.98,2,0,2,0.00
2013-1-3,82,70,62,70,65,60,97,86,51,30.09,29.97,17,1,17,0.00
2013-1-4,70,67,66,68,65,64,95,94,92,30.20,30.07,7,3,7,0.00
2013-1-5,78,69,64,68,65,61,94,86,68,30.22,30.11,11,3,11,0.00
2013-1-6,81,71,65,72,67,64,97,88,68,30.15,30.01,13,1,13,0.00
2013-1-7,76,70,66,69,67,64,95,91,76,30.14,30.04,13,2,13,0.00
2013-1-8,83,69,65,81,66,63,96,89,63,30.16,30.05,13,0,13,0.00
2013-1-9,85,76,72,69,69,65,89,79,53,30.22,30.11,16,1,16,0.00
2013-1-10,84,75,67,68,66,62,89,76,51,30.24,30.10,19,2,19,0.00
2013-1-11,83,72,63,69,64,61,96,79,49,30.22,30.07,14,1,14,0.01
2013-1-12,83,73,66,70,66,64,94,81,56,30.14,30.02,14,2,14,0.00
2013-1-13,82,72,65,69,65,62,93,81,56,30.09,30.01,16,1,16,0.01
2013-1-14,81,70,63,66,63,60,94,78,55,30.14,30.06,8,1,12,0.00
2013-1-15,81,70,60,68,63,59,96,80,56,30.11,30.01,11,1,11,0.00
2013-1-16,82,71,60,68,64,59,96,80,52,30.07,29.97,14,1,14,0.01
2013-1-17,78,68,61,70,62,52,96,83,68,30.10,29.95,25,4,25,0.00
2013-1-18,61,54,52,52,47,45,78,76,72,30.26,30.08,19,5,19,0.00
2013-1-19,75,63,52,65,56,45,92,79,69,30.20,30.06,13,3,13,0.00
2013-1-20,78,69,65,68,64,61,93,86,64,30.12,29.98,12,1,12,0.00
2013-1-21,68,64,64,64,62,62,93,93,88,30.06,29.96,7,0,7,0.00
2013-1-22,70,65,58,62,55,41,93,73,49,30.21,30.01,14,3,16,0.00
2013-1-23,74,61,54,53,46,42,72,59,32,30.30,30.18,16,3,16,0.00
2013-1-24,74,61,51,53,48,38,90,65,27,30.28,30.17,12,2,12,0.00
2013-1-25,76,61,50,56,52,47,95,73,42,30.26,30.14,10,1,10,0.00
2013-1-26,57,54,53,51,49,48,88,84,79,30.24,30.12,4,1,4,0.00
2013-1-27,79,65,53,60,54,49,84,70,45,30.24,30.15,14,2,14,0.00
2013-1-28,82,71,64,65,61,59,88,72,52,30.27,30.14,15,2,15,0.00
2013-1-29,84,72,63,68,65,61,93,78,52,30.19,30.05,17,2,17,0.00
2013-1-30,82,72,66,68,66,62,92,80,55,30.06,29.92,20,3,20,0.00
2013-1-31,70,66,52,68,58,37,94,76,42,30.18,29.90,13,3,13,0.00
2013-2-1,70,57,49,46,40,35,70,55,32,30.27,30.16,16,2,16,0.00
2013-2-2,75,60,49,56,46,38,87,61,39,30.23,30.08,12,2,12,0.00
2013-2-3,72,61,55,54,46,30,91,61,23,30.17,30.04,18,4,18,0.00
2013-2-4,56,53,51,53,51,49,94,91,87,30.08,30.05,9,0,9,0.00
2013-2-11,63,63,63,61,61,61,92,92,92,30.09,30.04,0,0,0,0.00
2013-2-12,82,70,63,71,65,61,94,84,64,30.08,29.93,22,2,22,0.00
2013-2-13,72,71,68,70,70,66,96,96,94,29.97,29.87,10,4,10,0.00
2013-2-14,76,68,61,71,66,59,96,94,76,30.01,29.84,26,5,26,0.01
2013-2-15,67,63,61,63,61,59,94,92,83,30.03,29.91,7,3,7,1.29
2013-2-16,68,62,56,62,53,42,94,74,56,30.07,29.87,24,5,24,0.01
2013-2-17,58,51,44,44,31,24,68,48,29,30.29,30.06,21,5,21,0.00
2013-2-18,71,56,40,51,42,27,79,60,44,30.29,30.16,18,2,20,0.00
2013-2-19,78,66,53,65,58,50,94,78,58,30.17,30.05,17,2,17,0.00
2013-2-20,82,68,57,66,59,54,97,76,39,30.08,29.95,13,1,13,0.00
2013-2-21,81,70,62,68,64,60,96,82,59,30.05,29.95,14,2,14,0.00
2013-2-22,84,73,63,71,67,61,95,82,57,30.05,29.95,15,2,15,0.01
2013-2-23,84,75,69,73,70,66,95,86,66,29.99,29.88,21,4,21,0.01
2013-2-24,82,74,68,72,70,67,96,87,67,29.95,29.86,15,2,15,0.00
2013-2-25,83,74,66,73,69,65,96,84,64,29.89,29.75,17,2,17,0.02
2013-2-26,84,75,68,74,71,65,94,86,68,29.87,29.71,33,5,33,0.01
2013-2-27,74,67,64,65,63,59,96,88,69,29.95,29.83,13,1,13,0.23
2013-2-28,73,64,60,61,57,52,91,77,53,30.00,29.89,15,2,15,0.00
2013-3-1,65,62,60,59,52,48,89,70,56,29.96,29.88,13,3,13,0.00
2013-3-5,70,61,56,59,56,54,94,86,67,30.08,30.04,11,0,11,0.00
2013-3-6,70,62,50,64,52,35,96,71,32,30.11,29.97,22,5,22,0.01
2013-3-7,68,55,47,49,42,35,81,61,36,30.18,30.06,16,4,16,0.00
2013-3-8,76,60,46,52,47,42,91,67,32,30.18,30.07,13,2,13,0.00
2013-3-9,76,63,50,54,50,44,92,66,32,30.16,30.06,12,2,12,0.00
2013-3-10,79,67,57,61,56,53,88,68,43,30.11,30.00,19,2,19,0.00
2013-3-11,79,69,59,63,60,56,90,74,52,30.07,29.89,19,3,19,0.00
2013-3-12,77,68,59,69,63,54,92,85,74,30.01,29.86,25,4,25,0.00
2013-3-13,77,64,55,55,48,39,89,61,27,30.14,29.99,15,4,16,0.00
2013-3-14,72,60,52,50,41,27,82,54,19,30.21,30.09,21,4,21,0.00
2013-3-15,74,59,47,50,41,29,86,58,24,30.26,30.10,15,2,15,0.00
2013-3-16,74,61,49,55,50,40,95,70,30,30.16,30.05,17,2,17,0.00
2013-3-17,77,65,52,61,57,50,94,77,54,30.10,29.98,17,2,18,0.00
2013-3-18,81,69,62,69,64,58,94,85,65,30.03,29.91,15,2,17,0.16
2013-3-19,81,70,65,69,66,62,95,87,62,30.00,29.81,23,2,23,0.02
2013-3-20,78,67,60,65,62,59,96,86,55,29.99,29.79,19,2,19,0.06
2013-3-21,75,65,54,62,52,37,94,68,26,29.94,29.83,15,3,16,0.00
2013-3-22,82,67,54,70,60,44,90,78,62,29.96,29.85,15,3,16,0.00
2013-3-23,84,76,70,73,69,66,94,79,57,29.94,29.78,20,3,23,0.00
2013-3-24,81,75,70,74,70,67,93,86,77,29.84,29.67,28,5,28,0.02
2013-3-25,77,71,61,72,56,32,92,63,24,30.01,29.72,18,6,19,0.00
2013-3-26,64,59,50,45,41,34,66,53,38,30.22,30.01,25,8,25,0.00
2013-3-27,65,55,50,46,39,33,71,56,33,30.27,30.15,16,3,16,0.00
2013-3-28,74,59,46,49,40,29,84,52,20,30.27,30.13,13,4,13,0.00
2013-3-29,77,63,53,52,46,39,82,58,29,30.28,30.14,15,2,15,0.00
2013-3-30,76,66,60,57,53,48,89,62,43,30.22,30.09,16,2,16,0.00
2013-3-31,80,69,60,63,60,57,89,74,47,30.15,29.99,16,3,21,0.00
2013-4-1,81,69,63,70,63,60,90,81,56,30.03,29.94,19,2,19,0.00
2013-4-2,83,74,68,69,66,63,95,77,54,30.06,29.96,15,2,15,0.00
2013-4-3,88,77,68,71,66,61,91,72,45,30.03,29.90,18,3,18,0.00
2013-4-4,82,73,66,72,68,63,93,83,71,29.99,29.84,26,2,26,0.61
2013-4-5,66,66,66,64,64,64,93,93,93,29.99,29.75,2,2,2,0.00
2013-4-6,79,69,63,64,62,55,93,79,53,30.01,29.89,14,3,14,0.00
2013-4-7,84,72,63,65,62,57,93,72,41,30.10,29.94,10,2,17,0.00
2013-4-8,85,75,68,66,62,57,84,66,41,30.08,29.99,12,2,13,0.00
2013-4-9,86,76,71,67,63,60,75,65,43,30.10,30.01,18,2,18,0.00
2013-4-10,87,76,68,73,68,65,93,77,55,30.06,29.93,17,3,17,0.07
2013-4-11,87,78,73,74,71,70,93,80,59,29.97,29.82,20,3,20,0.00
2013-4-12,86,79,76,74,72,66,88,80,60,29.91,29.84,19,3,19,0.00
2013-4-13,86,80,76,73,71,67,88,77,58,29.94,29.80,13,1,13,0.00
2013-4-14,88,80,74,76,72,69,94,78,57,29.94,29.81,18,2,18,0.00
2013-4-15,89,79,67,75,70,61,92,76,60,30.03,29.89,14,2,14,0.00
2013-4-16,91,79,71,74,70,68,92,76,49,30.09,29.98,19,2,19,0.00
2013-4-17,87,78,70,71,68,65,94,73,51,30.08,29.97,14,3,14,0.00
2013-4-18,88,77,73,75,69,60,93,77,52,30.02,29.90,16,2,17,0.31
2013-4-19,89,79,74,74,72,67,95,81,50,29.99,29.90,22,2,22,0.00
2013-4-20,86,77,73,75,71,67,91,82,63,30.08,29.92,15,2,15,0.00
2013-4-21,87,76,66,72,69,62,93,80,54,30.08,29.93,21,3,21,0.32
2013-4-22,82,74,69,72,69,67,93,85,65,30.04,29.90,11,1,11,0.08
2013-4-23,86,76,69,69,66,63,90,73,50,30.06,29.95,15,4,15,0.00
2013-4-24,85,77,63,72,65,62,95,69,47,30.11,30.01,14,3,14,0.00
2013-4-25,87,78,67,69,64,54,95,65,36,30.17,30.04,12,1,12,0.00
2013-4-26,86,76,69,66,64,62,84,67,46,30.20,30.10,17,2,17,0.00
2013-4-27,85,78,69,66,63,60,89,62,48,30.18,30.03,17,2,17,0.00
2013-4-28,87,78,69,71,64,56,84,64,46,30.08,29.93,15,2,15,0.00
2013-4-29,85,76,71,71,66,61,86,72,59,29.99,29.89,16,2,16,0.00
2013-4-30,85,76,71,74,70,67,95,81,60,29.96,29.88,10,1,19,0.00
2013-5-1,80,70,69,74,67,66,94,91,79,29.98,29.83,31,0,31,0.54
2013-5-2,69,69,69,66,66,66,91,91,91,29.92,29.77,0,0,0,0.00
2013-5-3,82,74,69,72,68,66,95,82,65,29.81,29.66,17,2,17,0.00
2013-5-4,81,75,70,70,68,65,88,78,65,29.78,29.66,24,4,24,0.00
2013-5-5,79,72,66,67,61,51,88,69,38,29.93,29.75,18,3,18,0.00
2013-5-6,78,71,64,66,61,57,93,71,59,29.98,29.89,16,2,16,0.00
2013-5-7,77,69,61,63,61,58,92,76,57,30.04,29.94,22,3,22,0.00
2013-5-8,80,71,61,64,60,52,95,70,39,30.11,30.02,15,2,15,0.00
2013-5-9,86,74,64,66,61,55,94,68,35,30.11,30.03,13,1,13,0.00
2013-5-10,87,78,68,74,69,63,93,75,55,30.09,29.96,17,2,17,0.00
2013-5-11,87,80,73,75,72,66,94,79,53,30.03,29.96,18,2,18,0.00
2013-5-12,85,79,76,75,73,68,90,83,70,30.01,29.88,18,2,18,0.00
2013-5-13,86,79,72,72,68,53,90,72,52,30.07,29.95,17,2,17,0.00
2013-5-14,85,74,66,60,56,53,69,55,36,30.14,30.03,20,5,20,0.00
2013-5-15,85,74,62,63,60,57,84,62,42,30.13,30.01,14,2,16,0.00
2013-5-16,87,76,67,65,62,56,83,63,38,30.07,29.94,13,2,13,0.00
2013-5-17,89,77,65,70,65,61,94,69,40,30.04,29.98,14,1,14,0.00
2013-5-18,89,79,70,72,70,66,95,74,50,30.07,29.97,19,2,19,0.00
2013-5-19,88,78,73,73,70,68,90,77,56,30.06,29.93,14,2,14,0.00
2013-5-20,91,76,70,74,69,66,95,83,48,30.03,29.92,20,2,20,0.63
2013-5-21,88,76,70,74,69,67,93,80,56,29.97,29.85,16,2,16,0.11
2013-5-22,86,77,69,75,70,67,95,81,59,29.92,29.84,17,2,17,0.01
2013-5-23,88,79,73,74,71,69,97,77,55,29.99,29.87,16,2,16,0.00
2013-5-24,90,80,73,75,71,65,93,74,45,30.04,29.92,19,2,19,0.01
2013-5-25,89,79,69,73,67,64,94,70,45,30.11,29.99,16,3,16,0.00
2013-5-26,88,77,66,67,65,57,91,68,37,30.14,30.04,17,3,17,0.00
2013-5-27,88,78,71,71,67,62,83,70,55,30.12,29.98,17,2,17,0.00
2013-5-28,86,78,74,74,71,70,91,81,64,30.07,29.97,22,3,22,0.02
2013-5-29,82,76,72,73,71,69,91,85,69,30.05,29.96,23,3,23,0.09
2013-5-30,88,78,73,75,72,69,91,81,62,30.01,29.91,21,3,21,0.01
2013-5-31,86,68,0,76,63,0,92,72,67,30.00,29.95,12,2,16,0.20
2013-6-1,88,78,74,77,73,72,92,85,62,29.99,29.90,10,3,15,0.00
2013-6-2,87,79,72,76,73,70,93,83,63,29.97,29.87,18,2,18,0.00
2013-6-3,84,78,76,76,73,72,93,86,73,29.98,29.87,13,1,13,0.02
2013-6-4,76,76,76,74,74,74,92,92,92,30.00,29.91,1,0,2,0.00
2013-6-5,79,77,76,76,75,74,93,91,88,29.97,29.82,14,0,14,0.03
2013-6-6,78,78,72,76,74,70,93,89,82,29.84,29.71,23,2,23,0.23
2013-6-7,77,77,77,72,72,72,84,84,84,29.95,29.77,3,3,3,0.00
2013-6-8,89,81,77,78,75,72,91,81,66,30.06,29.92,19,3,19,0.00
2013-6-9,91,82,77,77,75,72,94,79,56,30.06,29.96,14,1,14,0.00
2013-6-10,92,83,77,77,75,73,94,77,57,30.04,29.95,15,2,15,0.00
2013-6-11,92,80,70,78,74,67,95,83,56,30.06,29.93,24,1,24,1.99
2013-6-12,90,77,73,78,73,70,95,89,62,30.07,29.97,24,1,24,1.87
2013-6-13,87,78,74,77,73,68,96,85,65,30.01,29.89,13,1,13,0.00
2013-6-14,88,81,75,76,74,71,95,81,59,29.93,29.85,15,2,15,0.00
2013-6-15,88,81,74,78,75,72,95,81,65,30.01,29.89,14,1,14,0.00
2013-6-16,91,82,75,78,75,70,93,80,59,30.05,29.97,14,1,14,0.19
2013-6-17,91,83,75,78,75,72,94,80,56,30.04,29.95,18,1,18,0.01
2013-6-18,91,84,78,79,76,73,93,78,59,30.03,29.92,18,3,18,0.00
2013-6-19,90,79,74,78,74,70,93,84,62,30.01,29.93,16,1,16,1.28
2013-6-20,89,78,74,77,73,66,94,85,66,30.05,29.98,19,1,19,0.02
2013-6-21,88,79,74,77,73,70,92,82,64,30.07,29.99,12,1,12,0.20
2013-6-22,92,81,75,76,73,68,93,78,46,30.07,29.98,14,1,14,0.02
2013-6-23,90,80,76,76,73,70,92,82,57,30.09,30.00,17,1,17,0.04
2013-6-24,91,82,76,76,74,70,92,79,52,30.12,30.02,19,1,19,0.00
2013-6-25,93,82,76,76,73,69,89,76,48,30.09,29.96,25,1,25,0.00
2013-6-26,87,78,71,77,73,68,95,87,67,30.07,29.96,19,1,19,2.65
2013-6-27,88,78,74,78,74,72,96,87,65,30.01,29.91,20,1,22,0.22
2013-6-28,88,82,76,77,75,72,93,79,61,29.95,29.82,14,2,14,0.01
2013-6-29,88,84,77,77,76,71,93,77,64,29.87,29.78,17,2,17,0.00
2013-6-30,87,81,74,78,75,72,94,82,66,29.89,29.79,21,4,22,1.06
2013-7-1,87,75,73,77,73,66,94,92,67,29.96,29.85,33,1,33,1.87
2013-7-11,86,82,76,76,74,70,89,77,65,29.98,29.89,16,1,16,0.35
2013-7-12,86,81,76,76,74,72,93,81,68,29.93,29.85,11,1,11,0.00
2013-7-13,85,77,74,76,73,71,94,88,72,29.95,29.87,16,2,16,0.66
2013-7-14,80,76,75,74,72,72,93,89,79,30.04,29.92,11,4,11,0.00
2013-7-15,86,78,76,75,73,71,89,84,64,30.05,29.96,13,2,14,0.03
2013-7-16,85,79,77,74,73,70,89,82,68,30.08,30.00,20,2,20,0.08
2013-7-17,77,77,77,73,73,73,87,87,87,30.08,30.02,2,2,2,0.00
2013-7-21,87,84,79,79,76,70,86,77,65,30.10,30.00,13,2,13,0.06
2013-7-22,87,82,77,78,76,74,93,81,65,30.10,30.03,16,2,16,0.00
2013-7-23,88,83,79,78,76,73,94,80,65,30.07,29.95,13,2,14,0.00
2013-7-24,87,82,78,76,74,68,90,77,59,29.99,29.90,16,2,16,0.00
2013-7-25,87,84,80,77,75,74,86,77,67,29.99,29.88,19,3,19,0.00
2013-7-26,88,84,75,78,76,70,93,78,66,30.00,29.91,19,2,22,0.17
2013-7-27,89,82,75,79,76,72,95,84,64,29.96,29.88,15,1,15,2.05
2013-7-28,88,83,77,77,75,71,94,78,61,30.02,29.90,14,1,15,0.00
2013-7-29,92,81,77,77,74,71,92,81,55,30.10,29.98,20,1,27,0.01
2013-7-30,91,81,77,79,76,74,94,85,61,30.12,30.03,17,1,20,0.04
2013-7-31,89,82,77,78,76,73,93,84,63,30.08,29.96,23,1,23,0.44
2013-8-15,85,82,81,78,77,74,89,83,72,30.02,29.93,9,1,10,0.00
2013-8-16,81,81,81,77,77,77,88,88,88,30.01,29.91,0,0,0,0.00
2013-8-17,93,83,77,79,76,72,90,81,51,30.03,29.93,20,1,20,0.00
2013-8-18,92,82,77,79,76,73,92,82,58,30.05,29.93,19,2,19,0.00
2013-8-19,91,78,74,77,74,68,94,89,61,30.04,29.91,30,2,30,0.00
2013-8-20,88,80,75,77,74,73,93,85,64,30.02,29.94,13,1,13,0.00
2013-8-21,90,82,79,78,76,73,91,83,64,30.03,29.93,23,2,23,0.00
2013-8-22,93,82,76,79,76,74,95,84,54,30.01,29.90,17,2,17,0.00
2013-8-23,89,80,77,78,76,74,95,86,64,29.97,29.89,14,1,14,0.00
2013-8-24,80,80,80,76,76,76,86,86,86,30.09,29.93,0,0,0,0.00
2013-8-25,87,81,76,78,76,70,93,84,64,30.10,29.98,16,1,16,0.01
2013-8-26,89,80,74,77,75,70,94,86,59,30.07,29.94,15,1,15,0.00
2013-8-27,87,78,75,75,74,72,94,87,63,30.01,29.93,14,1,14,0.00
2013-8-28,87,78,74,75,74,69,94,86,56,30.00,29.93,15,1,15,0.00
2013-8-29,89,80,76,77,74,72,94,82,57,29.99,29.88,14,1,14,0.00
2013-8-30,88,81,77,77,75,71,92,84,64,29.97,29.85,19,1,19,0.00
2013-8-31,88,82,78,77,74,71,91,78,58,29.95,29.86,12,2,13,0.00
2013-9-1,89,80,78,77,74,72,89,81,62,29.96,29.89,19,1,19,0.00
2013-9-2,86,78,75,77,75,72,94,88,71,30.00,29.90,17,0,17,0.00
2013-9-3,88,80,76,77,75,67,94,84,66,29.99,29.89,12,0,12,0.00
2013-9-4,88,81,78,78,76,72,91,85,69,30.03,29.91,17,1,17,0.00
2013-9-5,92,83,79,79,76,72,90,80,52,30.04,29.94,13,1,13,0.00
2013-9-6,93,84,73,78,76,71,94,78,54,30.01,29.86,19,1,19,0.00
2013-9-7,89,76,74,76,73,71,93,88,62,29.96,29.87,28,1,28,0.00
2013-9-8,87,80,75,76,73,70,91,82,58,29.92,29.80,13,1,13,0.00
2013-9-9,88,79,77,76,75,74,91,87,66,29.96,29.86,15,1,15,0.62
2013-9-10,90,83,78,77,75,72,89,76,61,30.00,29.92,18,4,18,0.05
2013-9-11,86,80,77,78,75,74,92,85,72,30.00,29.93,18,3,18,0.48
2013-9-12,79,79,79,75,75,75,88,88,88,29.98,29.83,2,2,4,0.00
2013-9-13,88,82,77,76,75,72,92,79,60,29.87,29.77,12,2,12,0.00
2013-9-14,91,83,78,76,74,71,90,77,54,29.93,29.79,13,1,13,0.02
2013-9-15,90,80,75,78,74,70,93,85,61,30.01,29.89,24,2,24,0.20
2013-9-16,88,78,75,78,74,71,94,88,68,30.00,29.91,18,2,18,0.30
2013-9-17,76,76,76,75,75,75,94,94,94,29.98,29.87,0,0,0,0.00
2013-9-18,88,78,74,76,74,71,95,89,64,29.97,29.89,19,1,19,1.56
2013-9-19,88,79,75,76,74,73,95,87,63,29.98,29.90,16,2,16,0.00
2013-9-20,88,82,76,74,72,69,89,73,55,29.97,29.84,13,2,13,0.00
2013-9-21,87,80,74,76,73,69,90,78,56,29.89,29.73,13,1,13,0.00
2013-9-22,87,81,76,78,75,72,92,83,65,29.82,29.73,17,2,17,0.00
2013-9-23,82,79,77,79,77,75,94,92,83,29.93,29.80,11,0,11,0.20
2013-9-24,78,78,78,76,76,76,93,93,93,29.93,29.85,0,0,0,0.00
2013-9-25,78,78,78,76,76,76,93,93,93,29.89,29.76,0,0,0,0.00
2013-9-26,87,80,78,79,76,74,93,88,68,29.84,29.76,12,1,24,0.07
2013-9-27,86,79,74,75,72,66,92,79,54,29.90,29.80,12,2,12,0.00
2013-9-28,88,80,74,74,72,70,91,78,56,29.93,29.83,16,2,16,0.00
2013-9-29,88,79,73,73,71,67,92,77,54,29.93,29.82,11,1,11,0.00
2013-9-30,90,80,74,75,72,65,91,79,50,29.95,29.84,12,1,12,0.00
2013-10-1,90,81,75,75,72,68,92,77,51,29.99,29.88,13,1,13,0.00
2013-10-2,88,80,75,75,73,72,89,80,64,29.99,29.89,18,2,18,0.00
2013-10-3,87,78,75,76,74,72,95,86,67,30.00,29.90,18,1,18,0.79
2013-10-4,76,76,76,74,74,74,94,94,94,29.98,29.95,0,0,0,0.00
2013-10-9,81,78,76,72,72,71,84,81,74,29.96,29.90,9,3,9,0.00
2013-10-10,86,78,76,71,71,68,84,79,56,29.99,29.91,10,4,10,0.00
2013-10-15,73,73,73,69,69,69,87,87,87,29.88,29.88,3,3,3,0.00
2013-10-17,84,79,77,73,72,70,86,79,65,29.90,29.85,4,0,6,0.00
2013-10-18,90,80,76,75,72,61,89,79,48,29.94,29.83,11,1,11,0.00
2013-10-19,87,81,78,77,74,73,88,82,65,29.91,29.81,12,1,12,0.00
2013-10-20,87,82,79,77,76,71,90,81,62,29.91,29.82,11,0,11,0.00
2013-10-21,87,81,78,77,75,74,90,84,68,29.95,29.86,12,1,12,0.00
2013-10-22,86,82,80,80,75,74,83,80,67,29.92,29.79,18,2,18,0.00
2013-10-23,82,81,77,76,72,62,82,75,59,29.94,29.78,12,3,13,0.00
2013-10-24,77,72,0,63,59,0,81,60,62,30.09,29.93,11,4,11,0.00
2013-10-25,78,61,0,65,54,0,81,68,61,30.15,30.03,9,1,10,0.00
2013-10-26,82,66,0,64,57,0,80,67,47,30.13,30.01,9,2,11,0.00
2013-10-27,83,72,63,66,60,56,88,70,40,30.06,29.98,13,1,13,0.00
2013-10-28,84,74,65,69,64,62,92,74,48,30.12,30.02,14,2,14,0.00
2013-10-29,83,71,67,69,66,64,90,82,62,30.15,30.06,15,2,15,0.00
2013-11-4,80,75,71,65,64,61,79,67,54,30.04,29.98,14,5,21,0.00
2013-11-5,84,75,68,71,68,64,90,79,60,30.04,29.96,19,4,19,0.00
2013-11-6,86,77,71,71,69,67,88,76,56,30.02,29.92,14,2,14,0.00
2013-11-7,82,75,68,71,68,66,94,81,63,29.99,29.89,11,2,11,0.00
2013-11-8,77,70,68,68,66,65,92,88,73,29.99,29.93,14,2,14,0.00
2013-11-13,71,66,63,59,55,51,71,69,64,30.19,30.08,23,8,25,0.00
2013-11-14,77,68,58,61,57,52,84,70,51,30.20,30.08,21,3,21,0.00
2013-11-15,81,73,66,69,65,59,82,75,65,30.11,29.97,13,2,13,0.00
2013-11-16,79,74,70,72,68,64,94,83,66,30.04,29.97,14,2,14,0.13
2013-11-17,87,76,70,72,69,66,94,81,53,30.03,29.94,15,1,15,0.00
2013-11-18,84,76,68,73,70,67,95,83,66,30.00,29.88,11,1,11,0.00
2013-11-19,83,76,70,74,71,68,96,86,69,29.91,29.82,10,1,11,0.00
2013-11-20,85,75,68,72,69,66,96,83,58,30.02,29.90,9,1,9,0.00
2013-11-21,85,76,72,74,71,70,94,85,65,30.11,30.00,12,1,12,0.05
2013-11-22,83,76,71,72,70,67,95,82,62,30.11,30.01,17,2,17,0.00
2013-11-23,84,75,67,71,68,64,94,81,61,30.05,29.92,13,1,13,0.01
2013-11-24,78,71,66,69,66,61,93,84,68,30.12,29.96,20,4,20,0.01
2013-11-25,78,70,66,66,63,60,87,79,62,30.15,29.99,21,3,21,0.00
2013-11-26,84,76,70,74,71,66,94,85,65,29.99,29.73,26,3,26,0.31
2013-11-27,74,69,54,72,66,48,95,89,75,30.13,29.70,18,3,19,0.02
2013-11-28,70,56,43,55,48,38,86,75,55,30.25,30.11,16,4,16,0.00
2013-11-29,77,65,55,62,57,52,91,77,57,30.25,30.10,16,5,19,0.00
2013-11-30,76,66,58,66,61,55,94,84,67,30.21,30.09,13,4,20,0.00
2013-12-1,76,66,62,67,63,60,96,90,73,30.11,29.94,12,3,12,0.00
2013-12-2,74,66,61,66,63,59,96,89,74,29.94,29.79,9,1,9,0.01
2013-12-3,78,70,64,66,64,60,93,82,63,29.95,29.86,15,1,15,0.01
2013-12-4,82,73,64,70,66,62,95,81,58,30.04,29.93,13,1,13,0.00
2013-12-5,83,73,66,70,67,64,95,83,56,30.12,30.02,14,1,14,0.01
2013-12-6,86,75,68,72,69,65,95,82,57,30.14,30.03,15,1,15,0.01
2013-12-7,85,74,64,70,67,62,96,79,53,30.18,30.07,11,1,11,0.00
2013-12-8,84,75,68,70,67,65,94,79,54,30.16,30.04,13,1,13,0.01
2013-12-9,86,75,68,72,67,62,94,79,52,30.13,30.03,19,1,19,0.00
2013-12-10,84,74,66,72,68,64,95,82,57,30.12,30.04,10,1,10,0.00
2013-12-11,84,74,67,71,68,64,95,83,60,30.17,30.07,11,2,11,0.00
2013-12-12,72,68,59,68,62,42,95,82,44,30.21,30.11,16,3,16,0.00
2013-12-13,78,66,55,64,58,47,87,74,60,30.18,30.04,17,3,17,0.00
2013-12-14,84,74,66,72,68,62,94,82,59,30.06,29.92,15,2,15,0.00
2013-12-15,75,73,72,73,71,69,95,94,91,29.95,29.89,11,1,11,0.00
2014-1-2,80,76,70,72,70,67,93,84,71,29.95,29.83,32,5,32,0.13